Racecast

None

None · 4828m · Boys · Men's 3 Mile Run Varsity · 2012-08-28

Course difficulty: —

View full meet →

Team scores

Place Team Points 12345 67
1 Jones (OK) 36 3 4 8 9 12 35 41
2 Belvidere North (IL) 55 1 2 7 22 23 28 52
3 University (Normal) (IL) 91 11 17 18 20 25 31 37
4 Dixon (CA) 112 6 13 29 30 34 63
5 DeKalb (IL) 149 5 21 32 42 49 50 65
6 Aurora Central Catholic (IL) 184 10 36 45 46 47 48 57
7 Central (Burlington) (IL) 195 26 27 33 40 69 75 78
8 Sycamore (OH) 216 14 19 60 61 62 72 79
9 Pontiac (IL) 223 15 16 54 56 82
10 Woodstock (IL) 257 38 44 53 55 67
11 Sycamore (IL) 266 24 43 51 71 77
12 Rochelle (IL) 311 39 58 68 70 76 83 84
13 Grayslake North (IL) 336 59 64 66 73 74 80 81

Computed: five scorers, two displacers, incomplete teams removed. Not scored, fewer than five finishers: St. Francis (MN) (4), St. Francis (IL) (4), Putnam County (GA) (4), Jones (IL) (3), Sandwich (MA) (3), Sandwich (FL) (2), Dixon (IL) (2), Woodstock (GA) (1).

Results

Place Athlete Grade School Time Rating Points
1 Garrett Lee 2013 Belvidere North (IL) 1 15:30 1
2 Tyler Yunk 2013 Belvidere North (IL) 2 15:30.3 2
3 Luke O'Connor 2013 Jones (OK) 1 15:37.8 3
4 Jamison Dale 2013 Jones (OK) 2 15:40.1 4
5 Marc Dubrick 2013 DeKalb (IL) 1 15:42.1 PR 128.2 5
6 Simon Thorpe 2014 Dixon (CA) 1 15:53.6 6
7 Paxson Menard 2013 Belvidere North (IL) 3 16:07.5 7
8 Kyle Maloney 2015 Jones (OK) 3 16:10.6 8
9 Kirby Lawson 2013 Jones (OK) 4 16:11.7 9
10 Matt Meyers 2013 Aurora Central Catholic (IL) 1 16:15 10
11 Brendan Hoskins 2013 University (Normal) (IL) 1 16:16 11
12 Peter Schaible 2014 Jones (OK) 5 16:17.7 12
13 Skylar Mitchell 2014 Dixon (CA) 2 16:28 13
14 Mark Stice 2014 Sycamore (OH) 1 16:36.6 14
15 Zac Justus 2014 Pontiac (IL) 1 16:40.2 SR 120.8 15
16 Josh McCoy 2014 Pontiac (IL) 2 16:45.7 16
17 Wes Ward 2013 University (Normal) (IL) 2 16:46.1 17
18 J D LaFayette 2014 University (Normal) (IL) 3 16:46.6 18
19 Adam Millburg 2015 Sycamore (OH) 2 16:47 19
20 Adam Bruno 2013 University (Normal) (IL) 4 16:49.5 20
21 Isaac Heitanen 2014 DeKalb (IL) 2 16:54.5 21
22 Chase Hill 2014 Belvidere North (IL) 4 16:55.3 22
23 Jesse Laseman 2013 Belvidere North (IL) 5 17:02 23
24 David Emmert 2013 Sycamore (OH) 3 17:02.8 PR 118.1 24
25 Joseph Clay 2013 University (Normal) (IL) 5 17:08.8 25
26 Josh Schwarting 2014 Central (Burlington) (IL) 1 17:10.1 SR 117.3 26
27 Clay Musial 2015 Central (Burlington) (IL) 2 17:10.5 27
28 Jacob Howe 2014 Belvidere North (IL) 6 17:11.8 28
29 Roy Humell 2013 Dixon (CA) 3 17:12.8 29
30 Cody Sondgeroth 2014 Dixon (CA) 4 17:14.2 30
31 Lucas Houska 2014 University (Normal) (IL) 6 17:14.8 PR 116.8 31
32 T.J. Neidel 2013 DeKalb (IL) 3 17:18.5 PR 116.3 32
33 Dan Morgan 2013 Central (Burlington) (IL) 3 17:24.8 33
34 Benjamin Boswell 2015 Jones (OK) 6 17:25.3 PR 115.6 34
35 Austin Trevino 2014 Dixon (CA) 5 17:27.8 35
36 Kevin Johnson 2014 Jones (OK) 7 17:32.6 36
37 Adrian Alviar 2013 Aurora Central Catholic (IL) 2 17:35.3 37
38 Eli Hill 2015 University (Normal) (IL) 7 17:37.5 38
39 Zach Bellavia 2014 Woodstock (GA) 1 17:40.8 SR 113.9 39
40 Tyler Rivera 2013 Rochelle (IL) 1 17:45 SR 40
41 Daniel Lorden 2014 Jones (OK) 8 17:47.3 SR 113.2
42 Kyle Nuebauer 2015 Central (Burlington) (IL) 4 17:51.2 SR 41
43 Tony Gonzalez 2014 Jones (OK) 9 17:52.4
44 Tyler Greenwood 2013 DeKalb (IL) 4 17:54.1 42
45 Andrew Hallet 2014 St. Francis (MN) 1 18:01.6 43
46 Kendryk Rand 2014 Sycamore (OH) 4 18:03.4 PR 111.5 44
47 Nick Villimek 2014 St. Francis (MN) 2 18:03.8 45
48 Liam DeWane 2014 Woodstock (GA) 2 18:04.3 SR 111.4 46
49 Javier Montelongo 2014 Aurora Central Catholic (IL) 3 18:05.3 47
50 Yonatan Litwin 2013 Jones (OK) 10 18:08 PR 111.1
51 Johnny Castillo 2014 Jones (OK) 11 18:12.8
52 Daniel Aguilera 2013 Aurora Central Catholic (IL) 4 18:15.6 48
53 Gilberto Cervantes 2014 Aurora Central Catholic (IL) 5 18:18.5 49
54 Matt Knapp 2014 Aurora Central Catholic (IL) 6 18:19.5 50
55 Troy Harness 2013 DeKalb (IL) 5 18:24.9 51
56 Michael Braun 2013 University (Normal) (IL) 8 18:26.4
57 Colin Martin 2013 DeKalb (IL) 6 18:39.5 PR 107.9 52
58 Nick Aase 2014 Sycamore (OH) 5 18:39.9 PR 107.9 53
59 Josh Whitcomb 2013 Belvidere North (IL) 7 18:40.5 PR 107.8 54
60 Joey Primus 2014 Woodstock (GA) 3 18:41.5 PR 107.7 55
61 Dustin Luckow 2014 Belvidere North (IL) 8 18:44 PR
62 Matt Lorish 2014 St. Francis (MN) 3 18:46.5 PR 107.2 56
63 John Lyons 2013 St. Francis (MN) 4 18:46.9 57
64 Logan Durham 2014 Pontiac (IL) 3 18:47.3 58
65 Armando Rodriguez 2013 Jones (OK) 12 18:49.1
66 Anthony Morales 2014 Jones (OK) 13 18:53.6
67 Jordan Powers 2013 Woodstock (GA) 4 18:54.5 59
68 Paul Tempin 2013 Woodstock (GA) 5 18:55.3 PR 106.4 60
69 Michael Deaton 2014 St. Francis (MN) 5 18:58.2 61
70 Nick Kolker 2014 St. Francis (MN) 6 18:59.7 PR 106.0 62
71 Scott Stiff 2013 St. Francis (MN) 7 19:04.2 SR 105.6 63
72 Jon Menge 2014 Belvidere North (IL) 9 19:07.3
73 Garrison Green 2014 Pontiac (IL) 4 19:08 64
74 Dan Reczek 2014 St. Francis (MN) 8 19:08.4 PR 105.2
75 Justin Jerwers 2013 Aurora Central Catholic (IL) 7 19:11.5 SR 104.9 65
76 Scott Marisette 2014 Sandwich (MA) 1 19:23.6 PR 66
77 Alex Nash 2014 Rochelle (IL) 2 19:24.4 67
78 Brett Brown 2013 Grayslake North (IL) 1 19:25.1 68
79 Shawn Wolf 2013 Sycamore (OH) 6 19:30 PR 69
80 Jordan Peterson 2014 Sycamore (OH) 7 19:32.6 70
81 Tanner Yohe 2014 Sycamore (OH) 8 19:42.7 PR
82 Kylian Lally 2014 Dixon (CA) 6 19:43.5 71
83 Joey Stasiak 2013 Grayslake North (IL) 2 19:46.7 PR 101.8 72
84 Jacob Marx 2013 DeKalb (IL) 7 19:50.2 73
85 William Enowmbitang 2014 Grayslake North (IL) 3 20:08.2 74
86 Andy Layoff 2014 Woodstock (GA) 6 20:09.2 PR 99.9 75
87 Noah Huftalin 2014 Rochelle (IL) 3 20:19.3 PR 76
88 Avery Landseadal 2014 Belvidere North (IL) 10 20:23.2 PR
89 John Schmitz 2014 Central (Burlington) (IL) 5 20:32.6 77
90 Jeff Board 2014 Rochelle (IL) 4 20:33.9 SR 78
91 John Guss Sycamore (OH) 9 20:49.3 PR
92 Kevin Maillifer 2014 Sycamore (OH) 10 20:54.6
93 Lucas Foockle 2013 Putnam County (GA) 1 20:59 PR
94 John Foss 2014 Grayslake North (IL) 4 21:03.5 79
95 Nick Wipperfurth 2014 Grayslake North (IL) 5 21:09.8 PR 95.2 80
96 Weston Holt 2013 Central (Burlington) (IL) 6 21:13.2 PR 94.9 81
97 Trent Brinkmeier 2014 Dixon (CA) 7 21:17.7 SR 94.6 82
98 Logan Zeien 2014 Belvidere North (IL) 11 21:18.5
99 Bradlee Miller 2013 Rochelle (IL) 5 21:19.6 83
100 Joel Avila 2014 Belvidere North (IL) 12 21:38.8
101 Michael Graham 2013 Sycamore (OH) 11 21:39.4 PR 93.0
102 Eric Holmgren 2013 Central (Burlington) (IL) 7 21:43.7 PR 84
103 Jake Levy 2013 Putnam County (GA) 2 21:47.2
104 Joseph Boggio 2013 Putnam County (GA) 3 21:54.2
105 Alex Handel 2014 Sycamore (OH) 12 21:56.5
106 Joey Kimmey 2013 Sandwich (MA) 2 21:56.8 PR 85
107 Alec Bonnewell 2014 Dixon (CA) 8 22:07.4 SR 91.0
108 Alex Shulga 2014 Grayslake North (IL) 6 22:11.5 86
109 Alec Troemel 2013 Grayslake North (IL) 7 22:16.7 SR 90.4 87
110 Ryan Houlihan 2014 Central (Burlington) (IL) 8 22:41.7
111 Jason Conn 2013 Central (Burlington) (IL) 9 22:51.6
112 Riley Sholders 2016 Pontiac (IL) 5 22:57.9 PR 88
113 Jack Lutkus 2014 Sandwich (MA) 3 23:13.9 89
114 Michael Kearney 2014 Grayslake North (IL) 8 23:20.1
115 Ben Nordman 2014 Belvidere North (IL) 13 23:57.4
116 Payton Brinegar 2014 Sandwich (MA) 4 24:07.6 PR 90
117 Liam Joyce 2014 Central (Burlington) (IL) 10 24:14.1
118 Jarred Clark 2014 Putnam County (GA) 4 24:26.1
119 Adriel Valdez 2013 Central (Burlington) (IL) 11 24:45.5 PR
120 Joe Laurich 2014 Central (Burlington) (IL) 12 25:47.5 PR
121 David Picha 2014 Grayslake North (IL) 9 26:13.9
122 Cole Nelson 2014 Sycamore (OH) 13 26:21.8
123 Jack Rickard 2014 Grayslake North (IL) 10 26:31.4
124 Nick Rudd 2013 Sandwich (MA) 5 27:44.7 91
125 John Whitman 2013 Rochelle (IL) 6 28:45.3 92
126 Austin Ekhardt 2014 Rochelle (IL) 7 30:36.3 93
127 Derek Slager 2013 Central (Burlington) (IL) 13 31:13.6
Something wrong on this page? Report it →